Stations météo

réclame
Mon MeteoGroup
Estepona, Espagne (8463): Température de l'air & dewpoint: 14.10.2018 21:00:00 - 20.10.2018 21:00:00 (CEST)Estepona, Espagne (8463): Vitesse du vent & gusts: 14.10.2018 21:00:00 - 20.10.2018 21:00:00 (CEST)Estepona, Espagne (8463): Direction du vent: 14.10.2018 21:00:00 - 20.10.2018 21:00:00 (CEST)Estepona, Espagne (8463): reduced air pressure: 14.10.2018 21:00:00 - 20.10.2018 21:00:00 (CEST)Estepona, Espagne (8463): visibility: 14.10.2018 21:00:00 - 20.10.2018 21:00:00 (CEST)Estepona, Espagne (8463): Ensoleillement: 14.10.2018 21:00:00 - 20.10.2018 21:00:00 (CEST)Estepona, Espagne (8463): Quantités de précipitations: 14.10.2018 21:00:00 - 20.10.2018 21:00:00 (CEST)
Date & Time tt [°C] td [°C] ff [km/h] ff [knt] fx [km/h] fx [knt] dd ppp [hPa] vv [km] sd [min] rr [mm]
20.10.2018 21:00:00 19,1 15,8 9 5 23 12 NE 1016,6 14 0 0,4
20.10.2018 20:00:00 19,8 15,6 14 7 24 13 ENE 1016,2 7 0 -
20.10.2018 19:00:00 19,8 15,4 8 4 28 15 NE 1015,4 9 1 0,0
20.10.2018 18:00:00 20,0 15,6 10 5 29 16 ENE 1015,3 11 2 0,0
20.10.2018 17:00:00 19,7 15,2 17 9 30 16 E 1015,1 13 0 0,0
20.10.2018 16:00:00 19,5 15,0 19 10 36 20 E 1015,0 14 3 0,0
20.10.2018 15:00:00 19,3 14,1 18 10 38 21 E 1015,0 20 2 0,0
20.10.2018 14:00:00 19,3 14,8 22 12 35 19 ENE 1015,5 20 4 -
20.10.2018 13:00:00 18,8 15,9 12 6 25 14 NE 1015,8 20 10 0,4
20.10.2018 12:00:00 17,6 14,9 11 6 29 16 NE 1016,0 20 0 0,8
20.10.2018 11:00:00 17,7 14,2 16 9 39 21 ENE 1016,2 1,3 0 2,0
20.10.2018 10:00:00 18,3 14,6 10 5 23 13 ENE 1015,2 16 0 0,0
20.10.2018 09:00:00 17,8 14,3 9 5 27 15 NE 1014,4 20 0 0,0
20.10.2018 08:00:00 17,4 14,1 11 6 26 14 NE 1014,4 20 0 -
20.10.2018 07:00:00 17,6 14,3 12 6 41 22 ENE 1014,2 20 0 0,0
20.10.2018 06:00:00 17,1 13,5 10 5 28 15 NE 1014,1 8 0 2,0
20.10.2018 05:00:00 17,8 12,0 11 6 29 16 NE 1013,8 20 0 0,0
20.10.2018 04:00:00 17,7 11,4 12 7 28 15 NE 1014,3 20 0 0,0
20.10.2018 03:00:00 17,3 11,1 13 7 27 15 NE 1014,6 20 0 0,0
20.10.2018 02:00:00 16,8 10,4 12 7 22 12 NE 1014,6 20 0 -
20.10.2018 01:00:00 16,6 10,0 10 5 20 11 NE 1014,6 20 0 0,0
20.10.2018 00:00:00 16,2 10,5 11 6 23 13 NE 1014,8 20 0 0,0
19.10.2018 23:00:00 - - - - - - - - - - -
19.10.2018 22:00:00 16,1 12,8 9 5 25 14 NNE 1014,6 20 0 0,0
19.10.2018 21:00:00 16,3 13,1 9 5 22 12 NE 1014,4 20 0 0,6
19.10.2018 20:00:00 - - - - - - - - - - -
19.10.2018 19:00:00 16,7 12,2 7 4 29 16 NNE 1013,4 8 0 1,2
19.10.2018 18:00:00 18,7 10,3 10 5 26 14 NE 1012,1 20 20 0,0
19.10.2018 17:00:00 19,5 10,5 10 5 29 16 NE 1012,5 20 28 0,0
19.10.2018 16:00:00 18,8 11,6 11 6 39 21 ENE 1012,6 20 18 0,0
19.10.2018 15:00:00 17,4 12,7 17 9 34 18 ENE 1012,7 20 10 0,0
19.10.2018 14:00:00 16,9 12,0 21 11 39 21 E 1013,1 20 2 -
19.10.2018 13:00:00 17,9 11,9 8 4 17 9 E 1012,8 20 25 0,0
19.10.2018 12:00:00 18,0 11,8 8 4 - - ENE 1013,0 20 39 0,0
19.10.2018 11:00:00 16,1 10,9 5 3 19 10 W 1012,8 20 13 0,0
19.10.2018 10:00:00 15,5 10,9 14 7 - - WSW 1012,5 20 0 0,0
19.10.2018 09:00:00 - - - - - - - - - - -
19.10.2018 08:00:00 14,7 9,9 4 2 - - NNE 1010,8 20 0 -
19.10.2018 07:00:00 14,3 9,6 3 1 9 5 N 1011,2 20 0 0,0
19.10.2018 06:00:00 13,9 8,8 3 1 9 5 NNW 1011,2 20 0 0,0
19.10.2018 05:00:00 13,4 8,4 - - - - - 1011,0 20 0 0,0
19.10.2018 04:00:00 12,8 8,7 3 1 7 4 WNW 1011,3 20 0 0,0
19.10.2018 03:00:00 13,2 9,7 3 2 8 4 NW 1011,5 20 0 0,0
19.10.2018 02:00:00 12,8 9,3 3 2 8 4 NNE 1011,8 20 0 -
19.10.2018 01:00:00 13,4 9,3 2 1 - - W 1011,7 20 0 0,0
19.10.2018 00:00:00 13,7 9,6 - - - - - 1011,8 20 0 0,0
18.10.2018 23:00:00 14,0 9,8 3 2 8 4 N 1012,0 20 0 0,0
18.10.2018 22:00:00 14,2 10,4 2 1 8 4 WNW 1011,9 20 0 0,0
18.10.2018 21:00:00 14,2 10,6 2 1 8 4 N 1011,5 20 0 0,0
18.10.2018 20:00:00 14,6 11,0 4 2 8 5 ENE 1011,2 20 4 -
18.10.2018 19:00:00 15,7 12,1 4 2 - - NE 1010,0 20 6 0,0
18.10.2018 18:00:00 15,3 11,4 4 2 - - NNE 1009,8 20 27 0,0
18.10.2018 17:00:00 - - - - - - - - - - -
18.10.2018 16:00:00 16,0 11,8 - - - - - 1009,2 10 0 5,2
18.10.2018 15:00:00 18,0 12,0 25 13 42 23 E 1009,0 20 42 0,0
18.10.2018 14:00:00 19,3 13,1 10 5 18 10 SE 1009,2 20 20 -
18.10.2018 13:00:00 18,8 13,5 7 4 16 9 SSW 1010,0 20 57 0,0
18.10.2018 12:00:00 15,4 12,7 11 6 25 13 WSW 1009,3 20 8 0,0
18.10.2018 11:00:00 14,3 11,7 14 8 38 21 WSW 1008,4 20 0 0,2
18.10.2018 10:00:00 14,2 11,6 10 6 27 15 NNE 1007,4 2,1 0 7,0
18.10.2018 09:00:00 15,2 12,3 9 5 48 26 W 1009,9 6 0 25,2
18.10.2018 08:00:00 17,9 14,6 5 3 16 9 WNW 1008,6 20 0 -
18.10.2018 07:00:00 18,5 14,1 2 1 15 8 NW 1009,1 20 0 0,0
18.10.2018 06:00:00 18,8 14,5 5 3 12 7 SW 1009,5 20 0 0,0
18.10.2018 05:00:00 18,8 13,9 5 3 13 7 WSW 1010,4 20 0 0,0
18.10.2018 04:00:00 18,7 13,8 7 4 19 10 W 1011,4 20 0 0,0
18.10.2018 03:00:00 18,3 12,7 6 3 13 7 W 1012,2 20 0 0,0
18.10.2018 02:00:00 18,4 13,3 5 3 13 7 W 1013,0 20 0 -
18.10.2018 01:00:00 18,4 13,9 4 2 9 5 ENE 1013,6 20 0 0,0
18.10.2018 00:00:00 19,6 12,8 3 2 22 12 NE 1014,3 20 0 0,0
17.10.2018 23:00:00 20,4 12,8 11 6 23 12 WSW 1014,8 20 0 0,0
17.10.2018 22:00:00 20,8 12,7 10 5 22 12 W 1014,5 20 0 0,0
17.10.2018 21:00:00 19,2 15,1 8 5 20 11 WSW 1014,7 20 0 0,0
17.10.2018 20:00:00 20,4 16,2 4 2 10 6 ESE 1014,6 19 0 -
17.10.2018 19:00:00 21,6 16,6 5 3 10 6 ENE 1014,6 20 47 0,0
17.10.2018 18:00:00 22,7 16,2 6 4 10 5 E 1015,1 20 60 0,0
17.10.2018 17:00:00 24,2 16,0 4 2 10 5 SW 1015,6 20 59 0,0
17.10.2018 16:00:00 25,8 16,0 6 3 15 8 SW 1016,0 19 56 0,0
17.10.2018 15:00:00 25,4 16,2 6 3 14 8 SSW 1016,4 20 60 0,0
17.10.2018 14:00:00 24,3 15,8 10 5 16 9 SW 1017,5 20 60 -
17.10.2018 13:00:00 23,2 14,2 4 2 9 5 S 1018,0 20 60 0,0
17.10.2018 12:00:00 22,4 15,0 3 2 8 4 S 1017,9 20 60 0,0
17.10.2018 11:00:00 20,5 14,8 3 1 5 3 SSW 1018,1 20 58 0,0
17.10.2018 10:00:00 17,8 13,9 2 1 4 2 S 1018,1 20 6 0,0
17.10.2018 09:00:00 16,0 12,3 2 1 5 3 NNW 1017,7 20 1 0,0
17.10.2018 08:00:00 16,1 11,7 2 1 7 4 WNW 1017,5 20 0 -
17.10.2018 07:00:00 16,8 12,1 3 1 7 4 NW 1017,4 20 0 0,0
17.10.2018 06:00:00 17,4 12,5 4 2 6 3 NNW 1017,1 20 0 0,0
17.10.2018 05:00:00 17,0 12,3 3 1 6 3 NW 1017,2 20 0 0,0
17.10.2018 04:00:00 17,2 12,1 2 1 8 4 NNW 1017,5 20 0 0,0
17.10.2018 03:00:00 17,7 11,9 2 1 9 5 WNW 1017,7 20 0 0,0
17.10.2018 02:00:00 18,2 12,2 3 2 13 7 N 1017,7 20 0 -
17.10.2018 01:00:00 18,3 12,5 4 2 12 6 N 1017,7 20 0 0,0
17.10.2018 00:00:00 17,8 12,4 3 2 13 7 N 1017,9 20 0 0,0
16.10.2018 23:00:00 18,4 13,7 5 3 10 5 E 1017,5 20 0 0,0
16.10.2018 22:00:00 19,3 13,3 4 2 9 5 NE 1016,7 20 0 0,0
16.10.2018 21:00:00 20,7 13,7 5 3 11 6 NE 1016,2 20 0 0,0
16.10.2018 20:00:00 20,7 13,7 5 3 13 7 NE 1015,6 20 0 -
16.10.2018 19:00:00 21,2 15,1 9 5 - - ENE 1015,0 20 - -
16.10.2018 18:00:00 21,8 15,6 11 6 24 13 ENE 1014,7 20 27 0,0
16.10.2018 17:00:00 22,0 15,3 10 5 21 11 ENE 1014,4 20 34 0,0
16.10.2018 16:00:00 21,7 15,1 11 6 20 11 ENE 1014,1 20 31 0,0
16.10.2018 15:00:00 21,5 14,4 4 2 15 8 E 1014,1 20 2 0,0
16.10.2018 14:00:00 22,6 13,9 9 5 16 9 E 1014,4 20 57 -
16.10.2018 13:00:00 22,9 14,7 5 3 9 5 E 1014,5 20 60 0,0
16.10.2018 12:00:00 21,4 14,5 3 2 6 3 S 1014,1 20 60 0,0
16.10.2018 11:00:00 19,0 15,4 2 1 8 4 E 1014,0 20 48 0,0
16.10.2018 10:00:00 17,5 15,0 4 2 8 5 E 1013,2 20 10 0,0
16.10.2018 09:00:00 15,6 13,1 3 2 6 4 NNE 1012,6 20 2 0,0
16.10.2018 08:00:00 15,8 13,5 4 2 13 7 NW 1012,2 20 0 -
16.10.2018 07:00:00 15,7 13,4 4 2 11 6 NE 1011,9 20 0 0,0
16.10.2018 06:00:00 16,3 13,8 4 2 9 5 NW 1011,7 20 0 0,0
16.10.2018 05:00:00 16,7 14,1 4 2 9 5 NNE 1011,4 20 0 0,0
16.10.2018 04:00:00 17,1 14,5 5 3 16 9 E 1011,7 20 0 0,0
16.10.2018 03:00:00 17,1 14,7 2 1 16 9 WSW 1012,2 20 0 0,0
16.10.2018 02:00:00 17,3 14,9 10 6 23 12 WSW 1012,0 20 0 -
16.10.2018 01:00:00 17,1 14,7 13 7 27 15 WSW 1012,2 20 0 0,0
16.10.2018 00:00:00 17,2 14,8 15 8 35 19 WSW 1012,4 20 0 0,8
15.10.2018 23:00:00 17,4 14,9 18 10 40 22 WSW 1012,6 6 0 2,6
15.10.2018 22:00:00 17,1 14,1 9 5 17 9 WSW 1012,9 3,1 0 2,0
15.10.2018 21:00:00 17,6 13,8 7 4 17 9 W 1013,2 4,7 0 2,8
15.10.2018 20:00:00 18,9 12,4 6 4 28 15 W 1013,3 20 0 -
15.10.2018 19:00:00 19,5 12,2 14 8 42 23 W 1013,3 19 0 0,0
15.10.2018 18:00:00 21,4 9,9 19 10 42 23 W 1012,9 20 8 0,0
15.10.2018 17:00:00 22,9 8,5 18 10 53 29 W 1013,0 20 43 0,0
15.10.2018 16:00:00 23,6 6,8 19 11 44 24 W 1013,4 20 50 0,0
15.10.2018 15:00:00 23,3 6,5 22 12 48 26 WSW 1014,5 20 20 0,0
15.10.2018 14:00:00 21,6 5,9 15 8 34 19 W 1015,1 20 0 -
15.10.2018 13:00:00 21,2 4,3 18 10 50 27 W 1015,8 20 48 0,0
15.10.2018 12:00:00 20,5 2,9 22 12 50 27 W 1015,4 20 60 0,0
15.10.2018 11:00:00 19,4 0,4 25 13 48 26 W 1015,3 20 59 0,0
15.10.2018 10:00:00 18,0 2,3 18 10 40 22 W 1015,4 20 14 0,0
15.10.2018 09:00:00 16,2 3,6 19 10 36 20 W 1015,3 20 8 0,0
15.10.2018 08:00:00 14,6 7,0 15 8 34 19 WSW 1015,1 20 0 -
15.10.2018 07:00:00 14,6 7,0 15 8 29 16 W 1015,3 20 0 0,0
15.10.2018 06:00:00 15,3 6,5 10 6 22 12 W 1015,1 20 0 0,0
15.10.2018 05:00:00 16,2 6,5 13 7 25 14 W 1015,1 20 0 0,0
15.10.2018 04:00:00 16,9 4,6 9 5 23 12 W 1015,5 20 0 0,0
15.10.2018 03:00:00 17,4 5,3 10 5 28 15 W 1016,0 20 0 0,0
15.10.2018 02:00:00 17,2 6,1 14 8 24 13 W 1016,1 20 0 -
15.10.2018 01:00:00 18,0 5,3 9 5 27 15 W 1016,1 20 0 0,0
15.10.2018 00:00:00 18,2 4,6 13 7 29 15 W 1015,9 20 0 0,0
14.10.2018 23:00:00 18,0 5,3 8 4 29 15 W 1015,3 20 0 0,0
14.10.2018 22:00:00 18,5 5,3 8 4 24 13 W 1014,6 20 0 0,0
14.10.2018 21:00:00 19,1 4,8 7 4 24 13 W 1014,1 20 0 0,0

tt = Température de l'air
td = dewpoint
ff = Vitesse du vent
fx = gusts
dd = Direction du vent
ppp = reduced air pressure
vv = visibility
sd = Ensoleillement
rr = Quantités de précipitations

stations d'obs. à proximité